Szczecin, Polska

05:28 CEST dnia 30-maj-2017 (GMT +0200)
Goleniow

Pogoda Historia dla EPSC - styczeń, 2017

Change the Weather History Date:

Czwartek, styczeń 12, 2017

  Actual Average Record
Temperature  
Temperatura średnia 36 ° F -  
Temperatura maksymalna 40 ° F 36 ° F 48 ° F (2012)
Temperatura minimalna 31 ° F 26 ° F -27 ° F (2002)
Degree Days  
stopnio-dni grzewczych 30    
Moisture  
Punkt rosy 32 ° F    
Average Humidity 83    
Maximum Humidity 93    
Minimum Humidity 67    
Opady  
Opady 0.02 cali - - ()
Ciśnienie na poziomie morza  
Ciśnienie na poziomie morza 29.49 cali    
Wiatr  
Prędkość wiatru 11 mph ()    
Maksymalna prędkość wiatru 16 mph    
Max Gust Speed 24 mph    
Widzialność 7.5 mil    
Wydarzenia deszcz , śnieg    
Averages and records for this station are not official NWS values.
T = Trace of Precipitation, MM = Missing Value Source: Averaged Metar Reports

Daily Weather History Graph

Daily Weather History Graph

Search for Another Location

Airport or City:

Trip Planner

Search our weather history database for the weather conditions in past years. The results will help you decide how hot, cold, wet, or windy it might be!

Date:

Astronomia

Jan. 12, 2017 Wschód Zachów
Aktualny czas 08:11 CET 16:08 CET
Zmierzch cywilny 07:30 CET 16:49 CET
Zmierzch żeglarski 06:46 CET 17:34 CET
świt/zmierzch astronomiczny 06:04 CET 18:15 CET
Księżyc 16:34 CET (1/12) 07:41 CET (1/12)
całkowite oświetlenie 9h 19m
Długość dnia
7h 56m
Pełnia Księżyca, 100% of the Moon is Illuminated
Styczeń 12
Pełnia Księżyca
Styczeń 12
Pełnia Księżyca
Styczeń 19
Ostatnia kwadra
Styczeń 28
Nowy
Luty 4
Pierwsza kwadra

Hourly Weather History & Observations

czas (CET) Temp. czynnik chłodzący wiatru Punkt rosy Wilgotność Ciśnienie Widzialność Wind Dir Prędkość wiatru prędkość w porywie Precip Wydarzenia Warunki pogodowe
12:00 AM 37 ° F - 34 ° F 86% 29.41 cali 10 mi PdZd 11.2 mph - -   przewaga chmur
12:00 AM 35.6 ° F 28.6 ° F 33.8 ° F 93% 29.36 cali 6.2 mi PdZd 9.2 mph - N/A   przewaga chmur
12:30 AM 35.6 ° F 29.2 ° F 33.8 ° F 93% 29.36 cali 6.2 mi PdZd 8.1 mph - N/A   przewaga chmur
1:00 AM 38 ° F - 34 ° F 81% 29.42 cali 11 mi PdZd 11.2 mph - -   niewielkie zachmurzenie
1:00 AM 35.6 ° F 28.0 ° F 33.8 ° F 93% 29.39 cali 6.2 mi PdZd 10.4 mph - N/A   przewaga chmur
1:30 AM 37.4 ° F 29.8 ° F 33.8 ° F 87% 29.39 cali 6.2 mi ZdPdZd 11.5 mph - N/A deszcz , śnieg lekki deszcz
2:00 AM 38 ° F - 34 ° F 80% 29.44 cali 13 mi PdZd 11.2 mph - -   przewaga chmur
2:00 AM 37.4 ° F 30.3 ° F 33.8 ° F 87% 29.39 cali 6.2 mi ZdPdZd 10.4 mph - N/A   przewaga chmur
2:30 AM 37.4 ° F 28.9 ° F 33.8 ° F 87% 29.39 cali 6.2 mi ZdPdZd 13.8 mph - N/A   przewaga chmur
3:00 AM 38 ° F - 34 ° F 78% 29.46 cali 14 mi PdZd 11.2 mph - -   przewaga chmur
3:00 AM 37.4 ° F 29.8 ° F 33.8 ° F 87% 29.42 cali 6.2 mi ZdPdZd 11.5 mph - N/A   przewaga chmur
3:30 AM 37.4 ° F 30.3 ° F 32.0 ° F 81% 29.42 cali 6.2 mi ZdPdZd 10.4 mph - N/A   przewaga chmur
4:00 AM 38 ° F - 33 ° F 75% 29.47 cali 12 mi ZdPdZd 11.2 mph - -   przewaga chmur
4:00 AM 37.4 ° F 30.3 ° F 32.0 ° F 81% 29.42 cali 6.2 mi ZdPdZd 10.4 mph - N/A   przewaga chmur
4:30 AM 37.4 ° F 29.8 ° F 32.0 ° F 81% 29.44 cali 6.2 mi ZdPdZd 11.5 mph - N/A   przewaga chmur
5:00 AM 38 ° F - 33 ° F 74% 29.48 cali 13 mi ZdPdZd 13.4 mph - -   przewaga chmur
5:00 AM 37.4 ° F 29.3 ° F 32.0 ° F 81% 29.44 cali 6.2 mi ZdPdZd 12.7 mph - N/A   przewaga chmur
5:30 AM 37.4 ° F 28.9 ° F 32.0 ° F 81% 29.44 cali 6.2 mi ZdPdZd 13.8 mph - N/A   przewaga chmur
6:00 AM 37.4 ° F 29.8 ° F 32.0 ° F 81% 29.44 cali 6.2 mi ZdPdZd 11.5 mph - N/A   przewaga chmur
6:30 AM 35.6 ° F 26.2 ° F 32.0 ° F 87% 29.44 cali 6.2 mi ZdPdZd 15.0 mph - N/A   przewaga chmur
7:00 AM 37 ° F - 32 ° F 76% 29.51 cali 9 mi PdZd 13.4 mph - -   niewielkie zachmurzenie
7:00 AM 35.6 ° F 27.5 ° F 32.0 ° F 87% 29.47 cali 6.2 mi ZdPdZd 11.5 mph - N/A   przewaga chmur
7:30 AM 35.6 ° F 27.5 ° F 32.0 ° F 87% 29.47 cali 6.2 mi PdZd 11.5 mph - N/A   przewaga chmur
8:00 AM 36 ° F - 31 ° F 76% 29.52 cali 11 mi PdZd 11.2 mph - -   niewielkie zachmurzenie
8:00 AM 35.6 ° F 27.5 ° F 32.0 ° F 87% 29.47 cali 6.2 mi PdZd 11.5 mph - N/A   przewaga chmur
8:30 AM 35.6 ° F 27.1 ° F 32.0 ° F 87% 29.50 cali 6.2 mi ZdPdZd 12.7 mph - N/A   pochmurno
9:00 AM 37 ° F - 32 ° F 75% 29.54 cali 14 mi PdZd 13.4 mph - -   przewaga chmur
9:00 AM 35.6 ° F 27.5 ° F 32.0 ° F 87% 29.50 cali 6.2 mi ZdPdZd 11.5 mph - N/A   pochmurno
9:30 AM 35.6 ° F 27.1 ° F 32.0 ° F 87% 29.50 cali 6.2 mi ZdPdZd 12.7 mph - N/A   przewaga chmur
10:00 AM 38 ° F - 32 ° F 71% 29.55 cali 14 mi PdZd 13.4 mph - -   przewaga chmur
10:00 AM 37.4 ° F 28.9 ° F 32.0 ° F 81% 29.50 cali 6.2 mi ZdPdZd 13.8 mph - N/A   przewaga chmur
10:30 AM 37.4 ° F 28.9 ° F 32.0 ° F 81% 29.50 cali 6.2 mi ZdPdZd 13.8 mph - N/A   przewaga chmur
11:00 AM 38 ° F - 32 ° F 71% 29.57 cali 11 mi PdZd 13.4 mph - - deszcz lekkie przelotne deszcze
11:00 AM 37.4 ° F 28.9 ° F 32.0 ° F 81% 29.53 cali 6.2 mi ZdPdZd 13.8 mph - N/A   przewaga chmur
11:30 AM 37.4 ° F 29.3 ° F 32.0 ° F 81% 29.53 cali 6.2 mi ZdPdZd 12.7 mph - N/A   przewaga chmur
12:00 PM 39 ° F - 32 ° F 67% 29.57 cali 11 mi PdZd 13.4 mph - -   przewaga chmur
12:00 PM 37.4 ° F 29.3 ° F 32.0 ° F 81% 29.53 cali 6.2 mi ZdPdZd 12.7 mph - N/A   przewaga chmur
12:30 PM 37.4 ° F 28.2 ° F 32.0 ° F 81% 29.53 cali 6.2 mi ZdPdZd 16.1 mph - N/A   przewaga chmur
1:00 PM 39 ° F - 32 ° F 68% 29.56 cali 11 mi PdZd 15.7 mph - -   niewielkie zachmurzenie
1:00 PM 37.4 ° F 28.9 ° F 30.2 ° F 75% 29.53 cali 6.2 mi ZdPdZd 13.8 mph - N/A   przewaga chmur
1:30 PM 37.4 ° F 28.9 ° F 32.0 ° F 81% 29.50 cali 6.2 mi ZdPdZd 13.8 mph - N/A   przewaga chmur
2:00 PM 37 ° F - 33 ° F 80% 29.57 cali 7 mi PdZd 13.4 mph - - śnieg lekkie przelotne opady śniegu
2:00 PM 37.4 ° F 28.9 ° F 32.0 ° F 81% 29.53 cali 6.2 mi ZdPdZd 13.8 mph - N/A   przewaga chmur
2:30 PM 35.6 ° F 27.1 ° F 32.0 ° F 87% 29.53 cali 6.2 mi PdZd 12.7 mph - N/A deszcz lekkie przelotne deszcze
3:00 PM 38 ° F - 33 ° F 77% 29.56 cali 9 mi PdZd 13.4 mph - - śnieg lekkie przelotne opady śniegu
3:00 PM 35.6 ° F 27.5 ° F 32.0 ° F 87% 29.53 cali 5.0 mi ZdPdZd 11.5 mph - N/A deszcz lekkie przelotne deszcze
3:30 PM 35.6 ° F 28.6 ° F 33.8 ° F 93% 29.53 cali 6.2 mi PdZd 9.2 mph - N/A   obłoki zanikające
4:00 PM 37 ° F - 33 ° F 82% 29.57 cali 8 mi PdZd 8.9 mph - - deszcz lekkie przelotne deszcze
4:00 PM 35.6 ° F 27.1 ° F 32.0 ° F 87% 29.53 cali 6.2 mi ZdPdZd 12.7 mph 24.2 mph N/A   przewaga chmur
4:30 PM 35.6 ° F 29.2 ° F 32.0 ° F 87% 29.53 cali 6.2 mi PdZd 8.1 mph - N/A deszcz lekkie przelotne deszcze
5:00 PM 37 ° F - 33 ° F 79% 29.57 cali 9 mi PdZd 11.2 mph - - deszcz lekkie przelotne deszcze
5:00 PM 35.6 ° F 28.0 ° F 33.8 ° F 93% 29.53 cali 6.2 mi PdZd 10.4 mph - N/A   przewaga chmur
5:30 PM 35.6 ° F 29.2 ° F 32.0 ° F 87% 29.53 cali 6.2 mi PdZd 8.1 mph - N/A   obłoki zanikające
6:00 PM 37 ° F - 33 ° F 79% 29.56 cali 9 mi PdZd 11.2 mph - -   przewaga chmur
6:00 PM 35.6 ° F 29.2 ° F 32.0 ° F 87% 29.53 cali 6.2 mi PdPdZd 8.1 mph - N/A deszcz lekkie przelotne deszcze
6:30 PM 35.6 ° F 29.9 ° F 32.0 ° F 87% 29.53 cali 6.2 mi PdZd 6.9 mph - N/A   przewaga chmur
7:00 PM 37 ° F - 33 ° F 79% 29.55 cali 9 mi PdPdZd 13.4 mph - -   niewielkie zachmurzenie
7:00 PM 35.6 ° F 28.0 ° F 32.0 ° F 87% 29.50 cali 6.2 mi PdPdZd 10.4 mph - N/A   obłoki zanikające
7:30 PM 35.6 ° F 28.6 ° F 32.0 ° F 87% 29.50 cali 6.2 mi PdZd 9.2 mph - N/A   niewielkie zachmurzenie
8:00 PM 36 ° F - 32 ° F 81% 29.53 cali 9 mi PdPdZd 8.9 mph - -   przewaga chmur
8:00 PM 35.6 ° F 29.2 ° F 32.0 ° F 87% 29.50 cali 6.2 mi PdPdZd 8.1 mph - N/A   niewielkie zachmurzenie
8:30 PM 35.6 ° F 28.6 ° F 32.0 ° F 87% 29.50 cali 6.2 mi PdPdZd 9.2 mph - N/A   obłoki zanikające
9:00 PM 36 ° F - 33 ° F 84% 29.51 cali 6 mi PdPdZd 11.2 mph - - deszcz lekkie przelotne deszcze
9:00 PM 35.6 ° F 29.2 ° F 32.0 ° F 87% 29.47 cali 6.2 mi PdPdZd 8.1 mph - N/A   niewielkie zachmurzenie
9:30 PM 35.6 ° F 29.2 ° F 32.0 ° F 87% 29.47 cali 6.2 mi PdPdZd 8.1 mph - N/A   przewaga chmur
10:00 PM 35 ° F - 33 ° F 88% 29.49 cali 6 mi PdPdZd 8.9 mph - - deszcz lekkie przelotne deszcze
10:00 PM 35.6 ° F 28.6 ° F 32.0 ° F 87% 29.47 cali 6.2 mi PdPdZd 9.2 mph - N/A   przewaga chmur
10:30 PM 33.8 ° F 27.0 ° F 32.0 ° F 93% 29.44 cali 6.2 mi PdPdZd 8.1 mph - N/A   niewielkie zachmurzenie
11:00 PM 35 ° F - 32 ° F 86% 29.46 cali 7 mi PdPdZd 8.9 mph - -   niewielkie zachmurzenie
11:00 PM 33.8 ° F 28.6 ° F 32.0 ° F 93% 29.44 cali - PdPdZd 5.8 mph - N/A   pogodnie
11:30 PM 33.8 ° F 28.6 ° F 32.0 ° F 93% 29.42 cali - południowy 5.8 mph - N/A   pogodnie